Regional Weather Roundup
Issued by NWS

Home | Current Version | Previous Version | Text Only | Print | Product List | Glossary On
Versions: 1 2 3 4 5 6 7 8 9 10 11 12 13 14 15 16 17 18 19 20 21 22 23 24 25 26 27 28 29 30 31 32 33 34 35 36 37 38 39 40 41 42 43 44 45 46 47 48 49 50
000
ASUS46 KSTO 311509
RWRCA

NORTHERN AND CENTRAL CA REGIONAL WEATHER ROUNDUP
NATIONAL WEATHER SERVICE SACRAMENTO CA
800 AM PDT WED AUG 31 2016

NOTE: FAIR INDICATES FEW OR NO CLOUDS BELOW 12,000 FEET WITH NO
SIGNIFICANT WEATHER AND/OR OBSTRUCTIONS TO VISIBILITY.

CAZ001-003-311600-
NORTHWEST AREA

CITY           SKY/WX    TMP DP  RH WIND       PRES   REMARKS
CRESCENT CITY  MOSUNNY   56  54  93 CALM      30.02R
ARCATA         NOT AVBL
SHELTER COVE   NOT AVBL
UKIAH          SUNNY     58  47  66 CALM      29.95R
$$

CAZ006-505>513-311600-
BAY AREA

CITY           SKY/WX    TMP DP  RH WIND       PRES   REMARKS
SANTA ROSA     SUNNY     55  51  86 E3        29.91S
SAN RAFAEL     N/A       57  MM  MM MISG
NAPA           SUNNY     59  54  83 CALM      29.93R
CONCORD        SUNNY     62  53  72 S13       29.92R
OAKLAND CITY   N/A       59  MM  MM MISG
OAKLAND        CLOUDY    61  56  83 W9        29.95R
SAN FRAN CITY  N/A       57  MM  96 MISG
SAN FRAN ARPT  MOSUNNY   60  54  80 W17G23    29.95R
LIVERMORE      MOSUNNY   61  54  77 NW7       29.93R
HAYWARD        CLOUDY    60  53  77 W6        29.95R
REDWOOD CITY   N/A       MM  MM  MM MISG
MOFFETT ARPT   SUNNY     63  56  78 CALM      29.96R
SAN JOSE ARPT  MOSUNNY   62  55  77 NW8       29.95R
$$
CAZ034-037-514>518-311600-
CENTRAL COAST

CITY           SKY/WX    TMP DP  RH WIND       PRES   REMARKS
WATSONVILLE    NOT AVBL
SALINAS        SUNNY     61  55  81 NW6       29.95R
MONTEREY       PTSUNNY   59  55  87 W7        29.97R
PT PIEDRAS BLS NOT AVBL
SAN LUIS OBISP SUNNY     58  53  84 CALM      29.90R
SANTA MARIA    SUNNY     57  54  89 CALM      29.91R
$$
CAZ015-016-311600-
NORTHERN SACRAMENTO VALLEY

CITY           SKY/WX    TMP DP  RH WIND       PRES   REMARKS
REDDING        SUNNY     65  47  52 CALM      29.87S
RED BLUFF      SUNNY     69  49  48 N3        29.88R
OROVILLE       SUNNY     68  53  58 S5        29.89R
$$
CAZ016>018-311600-
SOUTHERN SACRAMENTO VALLEY

CITY           SKY/WX    TMP DP  RH WIND       PRES   REMARKS
AUBURN         SUNNY     70  43  37 SE5       29.92S
BEALE AFB      SUNNY     67  52  58 S7        29.86R
LINCOLN        FAIR      66  50  55 SE12      29.87R
MARYSVILLE     SUNNY     65  53  65 S7        29.88R
SAC INTL ARPT  MOSUNNY   63  53  70 S8        29.86R
MATHER AIRPORT MOSUNNY   64  52  63 S8        29.88S
DOWNTOWN SAC   N/A       63  MM  MM MISG
SAC EXEC ARPT  SUNNY     61  52  72 S7        29.88R
VACAVILLE      SUNNY     65  49  56 SW6       29.88R
TRAVIS AFB     SUNNY     62  52  71 SW20G28   29.86R
$$
CAZ019>021-311600-
SAN JOAQUIN VALLEY

CITY           SKY/WX    TMP DP  RH WIND       PRES   REMARKS
STOCKTON       SUNNY     65  52  62 W9        29.89R
MODESTO        SUNNY     70  51  51 N8        29.88R
MERCED         SUNNY     69  53  56 NW8       29.87S
LEMOORE        MOSUNNY   69  50  50 NW10      29.88R
FRESNO         SUNNY     69  52  54 NW9       29.88R
HANFORD        SUNNY     68  52  56 NW10      29.88R
PORTERVILLE    SUNNY     67  54  63 S5        29.90R
BAKERSFIELD    SUNNY     72  51  47 SE6       29.89R
$$
CAZ011-012-071-311600-
NORTHERN MOUNTAINS

CITY           SKY/WX    TMP DP  RH WIND       PRES   REMARKS
YREKA          MOSUNNY   54  42  64 CALM      30.01S
MOUNT SHASTA   SUNNY     53  43  68 NE3       30.01S
ALTURAS        SUNNY     53  32  44 CALM      30.05S
$$
CAZ011-012-071-311600-
SIERRA NEVADA MTNS

CITY           SKY/WX    TMP DP  RH WIND       PRES   REMARKS
BLUE CANYON    SUNNY     64  34  32 SE3       30.11S
TRUCKEE        MOSUNNY   55  34  44 CALM      30.13S
TAHOE VLY ARPT MOSUNNY   49  34  56 CALM      30.15S
MAMMOTH LAKES  FAIR      60  30  31 SE5       30.24R
$$




USA.gov is the U.S. government's official web portal to all federal, state and local government web resources and services.